sat.trackr.live / text

‹ back to catalog

STARLINK-35141

NORAD 65644 · 2025-210Y

PAYLOAD ACTIVE UNKNOWN

§ Identity

Operator
Country
US
Launch date
2025-09-18
Launch site
AFETR
Launch vehicle
Mass (kg)
RCS (m²)

Purposes: comms

External: N2YO · Heavens-Above · Gunter

§ Orbital elements

Epoch: 2026-05-24T18:14:23.352864Z

Period
94.10 min
Inclination
53.1599°
Eccentricity
0.0001025
Mean motion
15.30224816 rev/d
Perigee alt
474.4 km
Apogee alt
475.8 km
Semi-major
6,853.3 km
B*
6.9723e-4
RAAN
314.0305°
Arg perigee
76.2787°
Mean anomaly
283.8327°
Rev number
3,937

§ Raw data

STARLINK-351411 65644U 25210Y   26144.75999251  .00020363  00000+0  69723-3 0  99922 65644  53.1599 314.0305 0001025  76.2787 283.8327 15.30224816 39377

JSON: /api/v1/satellites/65644 · /tle

For live sub-satellite position, see the globe view (requires WebGL).

§ Visibility from observer

Set your observer location to see the next 7 days of passes ≥ 10°. The values pass through the URL so the page stays shareable.

No JS? Fill the form by hand. The geolocation button needs JavaScript.